Location: Libas
(9.8833°N, 125.9833°E)
Time: 10:37:50
(UTC+00:00)

Envisat - Pass Details

Date: 23 January 2021
Orbit: 764 x 766 km, 98.1° (Epoch: 27 February)

Event Time Altitude Azimuth Distance (km) Brightness Sun altitude
Rises 20:59:40 0° 13° (NNE) 3,218 6.2 -14.6°
Reaches altitude 10° 21:01:58 10° 14° (NNE) 2,292 5.4 -14.0°
Maximum altitude 21:07:01 84° 102° (ESE) 770 3.0 -12.8°
Drops below altitude 10° 21:12:05 10° 190° (S) 2,293 5.6 -11.7°
Sets 21:14:23 0° 191° (S) 3,219 6.3 -11.1°
